date,time,SUV Intensity [MED/Hr],UV Index,Daily total [MED],Since Last [MED]
27/11/2023,00:04:23,-0.001,0.0,0.0,0.0
27/11/2023,00:05:00,0.000,0.0,0.0,0.0
27/11/2023,00:06:01,-0.001,0.0,0.0,0.0
27/11/2023,00:07:01,-0.000,0.0,0.0,0.0
27/11/2023,00:08:01,0.000,0.0,0.0,0.0
27/11/2023,00:09:01,0.000,0.0,0.0,0.0
27/11/2023,00:10:00,0.000,0.0,0.0,0.0
27/11/2023,00:11:01,0.000,0.0,0.0,0.0
27/11/2023,00:12:01,-0.000,0.0,0.0,0.0
27/11/2023,00:13:01,0.000,0.0,0.0,0.0
27/11/2023,00:14:01,0.000,0.0,0.0,0.0
27/11/2023,00:15:01,0.000,0.0,0.0,0.0
27/11/2023,00:16:01,-0.000,0.0,0.0,0.0
27/11/2023,00:17:00,-0.000,0.0,0.0,0.0
27/11/2023,00:18:01,-0.000,0.0,0.0,0.0
27/11/2023,00:19:01,0.000,0.0,0.0,0.0
27/11/2023,00:20:01,0.001,0.0,0.0,0.0
27/11/2023,00:21:00,-0.001,0.0,0.0,0.0
27/11/2023,00:22:01,-0.000,0.0,0.0,0.0
27/11/2023,00:23:01,-0.000,0.0,0.0,0.0
27/11/2023,00:24:01,-0.001,0.0,0.0,0.0
27/11/2023,00:25:01,-0.001,0.0,0.0,0.0
27/11/2023,00:26:00,-0.000,0.0,0.0,0.0
27/11/2023,00:27:00,0.000,0.0,0.0,0.0
27/11/2023,00:28:01,-0.000,0.0,0.0,0.0
27/11/2023,00:29:01,-0.001,0.0,0.0,0.0
27/11/2023,00:30:01,-0.001,0.0,0.0,0.0
27/11/2023,00:31:00,-0.001,0.0,0.0,0.0
27/11/2023,00:32:00,0.001,0.0,0.0,0.0
27/11/2023,00:33:00,-0.000,0.0,0.0,0.0
27/11/2023,00:34:01,-0.000,0.0,0.0,0.0
27/11/2023,00:35:01,-0.000,0.0,0.0,0.0
27/11/2023,00:36:01,0.000,0.0,0.0,0.0
27/11/2023,00:37:01,0.001,0.0,0.0,0.0
27/11/2023,00:38:01,0.000,0.0,0.0,0.0
27/11/2023,00:39:01,0.000,0.0,0.0,0.0
27/11/2023,00:40:01,0.000,0.0,0.0,0.0
27/11/2023,00:41:01,-0.000,0.0,0.0,0.0
27/11/2023,00:42:00,0.001,0.0,0.0,0.0
27/11/2023,00:43:01,-0.000,0.0,0.0,0.0
27/11/2023,00:44:01,-0.000,0.0,0.0,0.0
27/11/2023,00:45:01,-0.000,0.0,0.0,0.0
27/11/2023,00:46:01,-0.000,0.0,0.0,0.0
27/11/2023,00:47:00,-0.001,0.0,0.0,0.0
27/11/2023,00:48:00,0.000,0.0,0.0,0.0
27/11/2023,00:49:01,-0.000,0.0,0.0,0.0
27/11/2023,00:50:01,0.000,0.0,0.0,0.0
27/11/2023,00:51:01,-0.000,0.0,0.0,0.0
27/11/2023,00:52:01,-0.002,0.0,0.0,0.0
27/11/2023,00:53:01,-0.000,0.0,0.0,0.0
27/11/2023,00:54:00,-0.000,0.0,0.0,0.0
27/11/2023,00:55:01,-0.000,0.0,0.0,0.0
27/11/2023,00:56:01,-0.000,0.0,0.0,0.0
27/11/2023,00:57:01,-0.001,0.0,0.0,0.0
27/11/2023,00:58:01,-0.000,0.0,0.0,0.0
27/11/2023,00:59:01,-0.001,0.0,0.0,0.0
27/11/2023,01:00:01,-0.001,0.0,0.0,0.0
27/11/2023,01:01:01,0.001,0.0,0.0,0.0
27/11/2023,01:02:01,0.000,0.0,0.0,0.0
27/11/2023,01:03:01,-0.001,0.0,0.0,0.0
27/11/2023,01:04:01,-0.001,0.0,0.0,0.0
27/11/2023,01:05:01,-0.001,0.0,0.0,0.0
27/11/2023,01:06:01,-0.000,0.0,0.0,0.0
27/11/2023,01:07:01,-0.000,0.0,0.0,0.0
27/11/2023,01:08:01,-0.001,0.0,0.0,0.0
27/11/2023,01:09:01,-0.000,0.0,0.0,0.0
27/11/2023,01:10:01,-0.001,0.0,0.0,0.0
27/11/2023,01:11:00,-0.001,0.0,0.0,0.0
27/11/2023,01:12:01,0.001,0.0,0.0,0.0
27/11/2023,01:13:01,-0.000,0.0,0.0,0.0
27/11/2023,01:14:01,0.000,0.0,0.0,0.0
27/11/2023,01:15:02,-0.000,0.0,0.0,0.0
27/11/2023,01:16:01,-0.002,0.0,0.0,0.0
27/11/2023,01:17:01,0.000,0.0,0.0,0.0
27/11/2023,01:18:01,-0.000,0.0,0.0,0.0
27/11/2023,01:19:01,0.001,0.0,0.0,0.0
27/11/2023,01:20:01,-0.000,0.0,0.0,0.0
27/11/2023,01:21:00,-0.000,0.0,0.0,0.0
27/11/2023,01:22:00,-0.001,0.0,0.0,0.0
27/11/2023,01:23:01,0.000,0.0,0.0,0.0
27/11/2023,01:24:01,0.000,0.0,0.0,0.0
27/11/2023,01:25:01,-0.000,0.0,0.0,0.0
27/11/2023,01:26:00,-0.001,0.0,0.0,0.0
27/11/2023,01:27:01,-0.001,0.0,0.0,0.0
27/11/2023,01:28:01,-0.000,0.0,0.0,0.0
27/11/2023,01:29:01,-0.000,0.0,0.0,0.0
27/11/2023,01:30:01,-0.000,0.0,0.0,0.0
27/11/2023,01:31:01,0.001,0.0,0.0,0.0
27/11/2023,01:32:01,0.000,0.0,0.0,0.0
27/11/2023,01:33:01,-0.000,0.0,0.0,0.0
27/11/2023,01:34:01,-0.001,0.0,0.0,0.0
27/11/2023,01:35:01,-0.001,0.0,0.0,0.0
27/11/2023,01:36:00,-0.000,0.0,0.0,0.0
27/11/2023,01:37:01,-0.001,0.0,0.0,0.0
27/11/2023,01:38:01,-0.001,0.0,0.0,0.0
27/11/2023,01:39:01,-0.001,0.0,0.0,0.0
27/11/2023,01:40:01,-0.001,0.0,0.0,0.0
27/11/2023,01:41:01,0.000,0.0,0.0,0.0
27/11/2023,01:42:01,-0.000,0.0,0.0,0.0
27/11/2023,01:43:01,-0.001,0.0,0.0,0.0
27/11/2023,01:44:01,-0.001,0.0,0.0,0.0
27/11/2023,01:45:01,-0.001,0.0,0.0,0.0
27/11/2023,01:46:01,-0.000,0.0,0.0,0.0
27/11/2023,01:47:02,-0.000,0.0,0.0,0.0
27/11/2023,01:48:02,0.001,0.0,0.0,0.0
27/11/2023,01:49:01,0.000,0.0,0.0,0.0
27/11/2023,01:50:01,-0.000,0.0,0.0,0.0
27/11/2023,01:51:01,-0.001,0.0,0.0,0.0
27/11/2023,01:52:00,0.000,0.0,0.0,0.0
27/11/2023,01:53:01,-0.001,0.0,0.0,0.0
27/11/2023,01:54:01,-0.000,0.0,0.0,0.0
27/11/2023,01:55:01,-0.000,0.0,0.0,0.0
27/11/2023,01:56:01,-0.001,0.0,0.0,0.0
27/11/2023,01:57:01,0.000,0.0,0.0,0.0
27/11/2023,01:58:01,0.000,0.0,0.0,0.0
27/11/2023,01:59:01,-0.000,0.0,0.0,0.0
27/11/2023,02:00:01,0.000,0.0,0.0,0.0
27/11/2023,02:01:01,-0.002,0.0,0.0,0.0
27/11/2023,02:02:01,0.000,0.0,0.0,0.0
27/11/2023,02:03:01,0.000,0.0,0.0,0.0
27/11/2023,02:04:00,-0.000,0.0,0.0,0.0
27/11/2023,02:05:01,-0.001,0.0,0.0,0.0
27/11/2023,02:06:01,-0.000,0.0,0.0,0.0
27/11/2023,02:07:01,-0.000,0.0,0.0,0.0
27/11/2023,02:08:01,-0.000,0.0,0.0,0.0
27/11/2023,02:09:01,-0.000,0.0,0.0,0.0
27/11/2023,02:10:01,-0.000,0.0,0.0,0.0
27/11/2023,02:11:01,-0.000,0.0,0.0,0.0
27/11/2023,02:12:01,-0.000,0.0,0.0,0.0
27/11/2023,02:13:01,-0.000,0.0,0.0,0.0
27/11/2023,02:14:01,-0.000,0.0,0.0,0.0
27/11/2023,02:15:01,-0.000,0.0,0.0,0.0
27/11/2023,02:16:01,-0.001,0.0,0.0,0.0
27/11/2023,02:17:01,-0.000,0.0,0.0,0.0
27/11/2023,02:18:01,-0.000,0.0,0.0,0.0
27/11/2023,02:19:01,-0.001,0.0,0.0,0.0
27/11/2023,02:20:01,0.000,0.0,0.0,0.0
27/11/2023,02:21:02,-0.000,0.0,0.0,0.0
27/11/2023,02:22:02,0.000,0.0,0.0,0.0
27/11/2023,02:23:01,0.001,0.0,0.0,0.0
27/11/2023,02:24:01,-0.001,0.0,0.0,0.0
27/11/2023,02:25:01,0.000,0.0,0.0,0.0
27/11/2023,02:26:01,-0.000,0.0,0.0,0.0
27/11/2023,02:27:01,-0.000,0.0,0.0,0.0
27/11/2023,02:28:01,-0.000,0.0,0.0,0.0
27/11/2023,02:29:01,0.000,0.0,0.0,0.0
27/11/2023,02:30:01,-0.000,0.0,0.0,0.0
27/11/2023,02:31:01,-0.000,0.0,0.0,0.0
27/11/2023,02:32:02,-0.000,0.0,0.0,0.0
27/11/2023,02:33:01,0.001,0.0,0.0,0.0
27/11/2023,02:34:01,-0.001,0.0,0.0,0.0
27/11/2023,02:35:01,0.000,0.0,0.0,0.0
27/11/2023,02:36:01,-0.000,0.0,0.0,0.0
27/11/2023,02:37:01,-0.000,0.0,0.0,0.0
27/11/2023,02:38:01,-0.001,0.0,0.0,0.0
27/11/2023,02:39:01,-0.001,0.0,0.0,0.0
27/11/2023,02:40:01,-0.000,0.0,0.0,0.0
27/11/2023,02:41:01,-0.000,0.0,0.0,0.0
27/11/2023,02:42:01,-0.000,0.0,0.0,0.0
27/11/2023,02:43:01,-0.001,0.0,0.0,0.0
27/11/2023,02:44:01,0.000,0.0,0.0,0.0
27/11/2023,02:45:01,0.000,0.0,0.0,0.0
27/11/2023,02:46:01,-0.000,0.0,0.0,0.0
27/11/2023,02:47:01,-0.001,0.0,0.0,0.0
27/11/2023,02:48:01,0.000,0.0,0.0,0.0
27/11/2023,02:49:01,0.000,0.0,0.0,0.0
27/11/2023,02:50:01,-0.000,0.0,0.0,0.0
27/11/2023,02:51:01,-0.001,0.0,0.0,0.0
27/11/2023,02:52:01,0.000,0.0,0.0,0.0
27/11/2023,02:53:01,0.001,0.0,0.0,0.0
27/11/2023,02:54:02,0.000,0.0,0.0,0.0
27/11/2023,02:55:02,0.001,0.0,0.0,0.0
27/11/2023,02:56:01,-0.000,0.0,0.0,0.0
27/11/2023,02:57:01,-0.000,0.0,0.0,0.0
27/11/2023,02:58:01,0.000,0.0,0.0,0.0
27/11/2023,02:59:01,-0.000,0.0,0.0,0.0
27/11/2023,03:00:01,0.001,0.0,0.0,0.0
27/11/2023,03:01:01,-0.000,0.0,0.0,0.0
27/11/2023,03:02:01,-0.000,0.0,0.0,0.0
27/11/2023,03:03:01,-0.000,0.0,0.0,0.0
27/11/2023,03:04:01,0.000,0.0,0.0,0.0
27/11/2023,03:05:01,-0.001,0.0,0.0,0.0
27/11/2023,03:06:01,-0.001,0.0,0.0,0.0
27/11/2023,03:07:02,-0.001,0.0,0.0,0.0
27/11/2023,03:08:01,0.000,0.0,0.0,0.0
27/11/2023,03:09:01,-0.000,0.0,0.0,0.0
27/11/2023,03:10:01,-0.001,0.0,0.0,0.0
27/11/2023,03:11:01,-0.000,0.0,0.0,0.0
27/11/2023,03:12:01,-0.000,0.0,0.0,0.0
27/11/2023,03:13:01,-0.000,0.0,0.0,0.0
27/11/2023,03:14:01,0.001,0.0,0.0,0.0
27/11/2023,03:15:01,-0.000,0.0,0.0,0.0
27/11/2023,03:16:01,-0.000,0.0,0.0,0.0
27/11/2023,03:17:01,0.000,0.0,0.0,0.0
27/11/2023,03:18:01,-0.000,0.0,0.0,0.0
27/11/2023,03:19:01,-0.000,0.0,0.0,0.0
27/11/2023,03:20:01,-0.000,0.0,0.0,0.0
27/11/2023,03:21:01,-0.000,0.0,0.0,0.0
27/11/2023,03:22:01,-0.000,0.0,0.0,0.0
27/11/2023,03:23:01,-0.001,0.0,0.0,0.0
27/11/2023,03:24:01,0.001,0.0,0.0,0.0
27/11/2023,03:25:01,-0.000,0.0,0.0,0.0
27/11/2023,03:26:01,0.000,0.0,0.0,0.0
27/11/2023,03:27:01,-0.000,0.0,0.0,0.0
27/11/2023,03:28:01,0.001,0.0,0.0,0.0
27/11/2023,03:29:01,-0.000,0.0,0.0,0.0
27/11/2023,03:30:01,-0.001,0.0,0.0,0.0
27/11/2023,03:31:01,-0.000,0.0,0.0,0.0
27/11/2023,03:32:01,-0.000,0.0,0.0,0.0
27/11/2023,03:33:01,-0.000,0.0,0.0,0.0
27/11/2023,03:34:01,-0.001,0.0,0.0,0.0
27/11/2023,03:35:01,-0.001,0.0,0.0,0.0
27/11/2023,03:36:01,-0.000,0.0,0.0,0.0
27/11/2023,03:37:01,0.000,0.0,0.0,0.0
27/11/2023,03:38:01,0.001,0.0,0.0,0.0
27/11/2023,03:39:01,0.001,0.0,0.0,0.0
27/11/2023,03:40:01,0.000,0.0,0.0,0.0
27/11/2023,03:41:01,-0.000,0.0,0.0,0.0
27/11/2023,03:42:01,-0.000,0.0,0.0,0.0
27/11/2023,03:43:01,0.000,0.0,0.0,0.0
27/11/2023,03:44:01,-0.000,0.0,0.0,0.0
27/11/2023,03:45:01,0.001,0.0,0.0,0.0
27/11/2023,03:46:01,-0.000,0.0,0.0,0.0
27/11/2023,03:47:01,-0.000,0.0,0.0,0.0
27/11/2023,03:48:01,-0.000,0.0,0.0,0.0
27/11/2023,03:49:03,0.000,0.0,0.0,0.0
27/11/2023,03:50:02,-0.001,0.0,0.0,0.0
27/11/2023,03:51:01,0.000,0.0,0.0,0.0
27/11/2023,03:52:01,0.000,0.0,0.0,0.0
27/11/2023,03:53:01,0.000,0.0,0.0,0.0
27/11/2023,03:54:01,-0.000,0.0,0.0,0.0
27/11/2023,03:55:01,-0.001,0.0,0.0,0.0
27/11/2023,03:56:01,-0.001,0.0,0.0,0.0
27/11/2023,03:57:01,0.001,0.0,0.0,0.0
27/11/2023,03:58:01,-0.001,0.0,0.0,0.0
27/11/2023,03:59:02,-0.000,0.0,0.0,0.0
27/11/2023,04:00:01,0.000,0.0,0.0,0.0
27/11/2023,04:01:01,0.000,0.0,0.0,0.0
27/11/2023,04:02:01,-0.000,0.0,0.0,0.0
27/11/2023,04:03:01,-0.001,0.0,0.0,0.0
27/11/2023,04:04:01,-0.000,0.0,0.0,0.0
27/11/2023,04:05:01,-0.000,0.0,0.0,0.0
27/11/2023,04:06:01,0.001,0.0,0.0,0.0
27/11/2023,04:07:01,-0.000,0.0,0.0,0.0
27/11/2023,04:08:01,-0.000,0.0,0.0,0.0
27/11/2023,04:09:01,0.000,0.0,0.0,0.0
27/11/2023,04:10:02,0.000,0.0,0.0,0.0
27/11/2023,04:11:01,0.001,0.0,0.0,0.0
27/11/2023,04:12:01,-0.000,0.0,0.0,0.0
27/11/2023,04:13:01,0.000,0.0,0.0,0.0
27/11/2023,04:14:02,0.000,0.0,0.0,0.0
27/11/2023,04:15:01,-0.001,0.0,0.0,0.0
27/11/2023,04:16:01,0.000,0.0,0.0,0.0
27/11/2023,04:17:01,0.001,0.0,0.0,0.0
27/11/2023,04:18:01,0.000,0.0,0.0,0.0
27/11/2023,04:19:02,0.000,0.0,0.0,0.0
27/11/2023,04:20:02,0.000,0.0,0.0,0.0
27/11/2023,04:21:01,-0.001,0.0,0.0,0.0
27/11/2023,04:22:01,0.000,0.0,0.0,0.0
27/11/2023,04:23:01,0.000,0.0,0.0,0.0
27/11/2023,04:24:01,0.000,0.0,0.0,0.0
27/11/2023,04:25:02,0.000,0.0,0.0,0.0
27/11/2023,04:26:01,-0.000,0.0,0.0,0.0
27/11/2023,04:27:01,-0.001,0.0,0.0,0.0
27/11/2023,04:28:01,0.000,0.0,0.0,0.0
27/11/2023,04:29:01,0.001,0.0,0.0,0.0
27/11/2023,04:30:01,-0.000,0.0,0.0,0.0
27/11/2023,04:31:01,0.000,0.0,0.0,0.0
27/11/2023,04:32:01,0.000,0.0,0.0,0.0
27/11/2023,04:33:01,-0.001,0.0,0.0,0.0
27/11/2023,04:34:01,0.000,0.0,0.0,0.0
27/11/2023,04:35:01,0.000,0.0,0.0,0.0
27/11/2023,04:36:01,0.000,0.0,0.0,0.0
27/11/2023,04:37:01,0.000,0.0,0.0,0.0
27/11/2023,04:38:01,0.000,0.0,0.0,0.0
27/11/2023,04:39:01,0.000,0.0,0.0,0.0
27/11/2023,04:40:02,0.000,0.0,0.0,0.0
27/11/2023,04:41:01,-0.000,0.0,0.0,0.0
27/11/2023,04:42:01,0.000,0.0,0.0,0.0
27/11/2023,04:43:01,0.000,0.0,0.0,0.0
27/11/2023,04:44:02,0.001,0.0,0.0,0.0
27/11/2023,04:45:01,0.000,0.0,0.0,0.0
27/11/2023,04:46:01,0.000,0.0,0.0,0.0
27/11/2023,04:47:01,0.001,0.0,0.0,0.0
27/11/2023,04:48:01,0.000,0.0,0.0,0.0
27/11/2023,04:49:01,0.002,0.0,0.0,0.0
27/11/2023,04:50:01,-0.000,0.0,0.0,0.0
27/11/2023,04:51:01,-0.000,0.0,0.0,0.0
27/11/2023,04:52:02,0.001,0.0,0.0,0.0
27/11/2023,04:53:02,-0.000,0.0,0.0,0.0
27/11/2023,04:54:01,0.000,0.0,0.0,0.0
27/11/2023,04:55:02,0.000,0.0,0.0,0.0
27/11/2023,04:56:01,0.001,0.0,0.0,0.0
27/11/2023,04:57:01,-0.000,0.0,0.0,0.0
27/11/2023,04:58:01,-0.001,0.0,0.0,0.0
27/11/2023,04:59:02,0.000,0.0,0.0,0.0
27/11/2023,05:00:01,0.000,0.0,0.0,0.0
27/11/2023,05:01:01,0.000,0.0,0.0,0.0
27/11/2023,05:02:01,0.000,0.0,0.0,0.0
27/11/2023,05:03:01,0.000,0.0,0.0,0.0
27/11/2023,05:04:01,0.000,0.0,0.0,0.0
27/11/2023,05:05:01,-0.000,0.0,0.0,0.0
27/11/2023,05:06:01,0.000,0.0,0.0,0.0
27/11/2023,05:07:01,0.000,0.0,0.0,0.0
27/11/2023,05:08:01,0.000,0.0,0.0,0.0
27/11/2023,05:09:01,0.000,0.0,0.0,0.0
27/11/2023,05:10:01,0.000,0.0,0.0,0.0
27/11/2023,05:11:01,0.000,0.0,0.0,0.0
27/11/2023,05:12:01,0.000,0.0,0.0,0.0
27/11/2023,05:13:02,-0.000,0.0,0.0,0.0
27/11/2023,05:14:02,0.000,0.0,0.0,0.0
27/11/2023,05:15:02,0.001,0.0,0.0,0.0
27/11/2023,05:16:02,0.000,0.0,0.0,0.0
27/11/2023,05:17:01,0.000,0.0,0.0,0.0
27/11/2023,05:18:01,0.000,0.0,0.0,0.0
27/11/2023,05:19:02,0.000,0.0,0.0,0.0
27/11/2023,05:20:02,0.000,0.0,0.0,0.0
27/11/2023,05:21:01,0.001,0.0,0.0,0.0
27/11/2023,05:22:02,0.000,0.0,0.0,0.0
27/11/2023,05:23:01,-0.001,0.0,0.0,0.0
27/11/2023,05:24:01,0.001,0.0,0.0,0.0
27/11/2023,05:25:02,0.001,0.0,0.0,0.0
27/11/2023,05:26:01,-0.001,0.0,0.0,0.0
27/11/2023,05:27:02,0.000,0.0,0.0,0.0
27/11/2023,05:28:02,0.000,0.0,0.0,0.0
27/11/2023,05:29:01,0.000,0.0,0.0,0.0
27/11/2023,05:30:01,-0.000,0.0,0.0,0.0
27/11/2023,05:31:02,0.000,0.0,0.0,0.0
27/11/2023,05:32:02,0.001,0.0,0.0,0.0
27/11/2023,05:33:01,0.000,0.0,0.0,0.0
27/11/2023,05:34:02,0.000,0.0,0.0,0.0
27/11/2023,05:35:01,0.000,0.0,0.0,0.0
27/11/2023,05:36:01,-0.001,0.0,0.0,0.0
27/11/2023,05:37:01,0.000,0.0,0.0,0.0
27/11/2023,05:38:02,0.000,0.0,0.0,0.0
27/11/2023,05:39:01,0.000,0.0,0.0,0.0
27/11/2023,05:40:01,0.000,0.0,0.0,0.0
27/11/2023,05:41:01,0.000,0.0,0.0,0.0
27/11/2023,05:42:02,-0.000,0.0,0.0,0.0
27/11/2023,05:43:01,0.000,0.0,0.0,0.0
27/11/2023,05:44:01,0.000,0.0,0.0,0.0
27/11/2023,05:45:01,0.000,0.0,0.0,0.0
27/11/2023,05:46:01,0.000,0.0,0.0,0.0
27/11/2023,05:47:03,0.000,0.0,0.0,0.0
27/11/2023,05:48:01,0.001,0.0,0.0,0.0
27/11/2023,05:49:02,0.001,0.0,0.0,0.0
27/11/2023,05:50:02,-0.000,0.0,0.0,0.0
27/11/2023,05:51:01,-0.000,0.0,0.0,0.0
27/11/2023,05:52:01,0.000,0.0,0.0,0.0
27/11/2023,05:53:01,0.000,0.0,0.0,0.0
27/11/2023,05:54:01,0.000,0.0,0.0,0.0
27/11/2023,05:55:02,0.000,0.0,0.0,0.0
27/11/2023,05:56:02,0.000,0.0,0.0,0.0
27/11/2023,05:57:02,0.000,0.0,0.0,0.0
27/11/2023,05:58:01,0.000,0.0,0.0,0.0
27/11/2023,05:59:01,0.000,0.0,0.0,0.0
27/11/2023,06:00:01,0.000,0.0,0.0,0.0
27/11/2023,06:01:01,0.000,0.0,0.0,0.0
27/11/2023,06:02:01,0.000,0.0,0.0,0.0
27/11/2023,06:03:01,-0.000,0.0,0.0,0.0
27/11/2023,06:04:01,0.001,0.0,0.0,0.0
27/11/2023,06:05:01,0.001,0.0,0.0,0.0
27/11/2023,06:06:01,-0.001,0.0,0.0,0.0
27/11/2023,06:07:02,-0.001,0.0,0.0,0.0
27/11/2023,06:08:01,-0.001,0.0,0.0,0.0
27/11/2023,06:09:02,0.000,0.0,0.0,0.0
27/11/2023,06:10:02,0.000,0.0,0.0,0.0
27/11/2023,06:11:01,0.000,0.0,0.0,0.0
27/11/2023,06:12:02,0.000,0.0,0.0,0.0
27/11/2023,06:13:02,0.000,0.0,0.0,0.0
27/11/2023,06:14:01,0.000,0.0,0.0,0.0
27/11/2023,06:15:02,-0.001,0.0,0.0,0.0
27/11/2023,06:16:02,0.000,0.0,0.0,0.0
27/11/2023,06:17:01,0.000,0.0,0.0,0.0
27/11/2023,06:18:01,-0.001,0.0,0.0,0.0
27/11/2023,06:19:02,0.000,0.0,0.0,0.0
27/11/2023,06:20:02,0.000,0.0,0.0,0.0
27/11/2023,06:21:01,0.000,0.0,0.0,0.0
27/11/2023,06:22:02,-0.001,0.0,0.0,0.0
27/11/2023,06:23:02,-0.001,0.0,0.0,0.0
27/11/2023,06:24:01,0.001,0.0,0.0,0.0
27/11/2023,06:25:02,-0.001,0.0,0.0,0.0
27/11/2023,06:26:02,0.000,0.0,0.0,0.0
27/11/2023,06:27:02,0.000,0.0,0.0,0.0
27/11/2023,06:28:02,-0.000,0.0,0.0,0.0
27/11/2023,06:29:01,0.000,0.0,0.0,0.0
27/11/2023,06:30:02,-0.001,0.0,0.0,0.0
27/11/2023,06:31:02,0.000,0.0,0.0,0.0
27/11/2023,06:32:02,0.001,0.0,0.0,0.0
27/11/2023,06:33:02,-0.001,0.0,0.0,0.0
27/11/2023,06:34:02,0.000,0.0,0.0,0.0
27/11/2023,06:35:01,0.000,0.0,0.0,0.0
27/11/2023,06:36:01,0.000,0.0,0.0,0.0
27/11/2023,06:37:02,-0.001,0.0,0.0,0.0
27/11/2023,06:38:01,0.000,0.0,0.0,0.0
27/11/2023,06:39:01,-0.000,0.0,0.0,0.0
27/11/2023,06:40:01,0.001,0.0,0.0,0.0
27/11/2023,06:41:01,0.000,0.0,0.0,0.0
27/11/2023,06:42:02,0.001,0.0,0.0,0.0
27/11/2023,06:43:02,0.000,0.0,0.0,0.0
27/11/2023,06:44:01,0.000,0.0,0.0,0.0
27/11/2023,06:45:02,0.001,0.0,0.0,0.0
27/11/2023,06:46:01,-0.000,0.0,0.0,0.0
27/11/2023,06:47:01,0.001,0.0,0.0,0.0
27/11/2023,06:48:01,0.001,0.0,0.0,0.0
27/11/2023,06:49:02,-0.000,0.0,0.0,0.0
27/11/2023,06:50:02,0.000,0.0,0.0,0.0
27/11/2023,06:51:02,0.001,0.0,0.0,0.0
27/11/2023,06:52:01,-0.000,0.0,0.0,0.0
27/11/2023,06:53:01,0.001,0.0,0.0,0.0
27/11/2023,06:54:01,0.000,0.0,0.0,0.0
27/11/2023,06:55:02,0.001,0.0,0.0,0.0
27/11/2023,06:56:02,0.000,0.0,0.0,0.0
27/11/2023,06:57:01,0.000,0.0,0.0,0.0
27/11/2023,06:58:01,0.001,0.0,0.0,0.0
27/11/2023,06:59:01,0.001,0.0,0.0,0.0
27/11/2023,07:00:02,0.000,0.0,0.0,0.0
27/11/2023,07:01:02,0.000,0.0,0.0,0.0
27/11/2023,07:02:01,-0.000,0.0,0.0,0.0
27/11/2023,07:03:01,0.000,0.0,0.0,0.0
27/11/2023,07:04:01,0.001,0.0,0.0,0.0
27/11/2023,07:05:02,0.001,0.0,0.0,0.0
27/11/2023,07:06:02,0.000,0.0,0.0,0.0
27/11/2023,07:07:01,-0.001,0.0,0.0,0.0
27/11/2023,07:08:02,0.000,0.0,0.0,0.0
27/11/2023,07:09:02,0.001,0.0,0.0,0.0
27/11/2023,07:10:01,0.000,0.0,0.0,0.0
27/11/2023,07:11:02,0.001,0.0,0.0,0.0
27/11/2023,07:12:02,0.000,0.0,0.0,0.0
27/11/2023,07:13:03,0.000,0.0,0.0,0.0
27/11/2023,07:14:03,0.000,0.0,0.0,0.0
27/11/2023,07:15:02,0.001,0.0,0.0,0.0
27/11/2023,07:16:03,0.001,0.0,0.0,0.0
27/11/2023,07:17:01,0.000,0.0,0.0,0.0
27/11/2023,07:18:23,0.001,0.0,0.0,0.0
27/11/2023,07:19:01,0.000,0.0,0.0,0.0
27/11/2023,07:20:01,0.000,0.0,0.0,0.0
27/11/2023,07:21:01,0.000,0.0,0.0,0.0
27/11/2023,07:22:01,0.000,0.0,0.0,0.0
27/11/2023,07:23:02,-0.000,0.0,0.0,0.0
27/11/2023,07:24:02,0.000,0.0,0.0,0.0
27/11/2023,07:25:01,0.001,0.0,0.0,0.0
27/11/2023,07:26:02,0.002,0.0,0.0,0.0
27/11/2023,07:27:02,0.000,0.0,0.0,0.0
27/11/2023,07:28:01,0.001,0.0,0.0,0.0
27/11/2023,07:29:01,0.001,0.0,0.0,0.0
27/11/2023,07:30:02,0.000,0.0,0.0,0.0
27/11/2023,07:31:01,0.002,0.0,0.0,0.0
27/11/2023,07:32:01,0.001,0.0,0.0,0.0
27/11/2023,07:33:01,0.001,0.0,0.0,0.0
27/11/2023,07:34:02,0.001,0.0,0.0,0.0
27/11/2023,07:35:02,0.001,0.0,0.0,0.0
27/11/2023,07:36:01,0.001,0.0,0.0,0.0
27/11/2023,07:37:02,0.001,0.0,0.0,0.0
27/11/2023,07:38:02,0.002,0.0,0.0,0.0
27/11/2023,07:39:02,0.002,0.0,0.0,0.0
27/11/2023,07:40:01,0.002,0.0,0.0,0.0
27/11/2023,07:41:02,0.002,0.0,0.0,0.0
27/11/2023,07:42:02,0.002,0.0,0.0,0.0
27/11/2023,07:43:01,0.002,0.0,0.0,0.0
27/11/2023,07:44:02,0.002,0.0,0.0,0.0
27/11/2023,07:45:02,0.002,0.0,0.0,0.0
27/11/2023,07:46:02,0.003,0.0,0.0,0.0
27/11/2023,07:47:02,0.003,0.0,0.0,0.0
27/11/2023,07:48:01,0.003,0.0,0.0,0.0
27/11/2023,07:49:01,0.003,0.0,0.0,0.0
27/11/2023,07:50:02,0.004,0.0,0.0,0.0
27/11/2023,07:51:02,0.004,0.0,0.0,0.0
27/11/2023,07:52:01,0.003,0.0,0.0,0.0
27/11/2023,07:53:01,0.004,0.0,0.0,0.0
27/11/2023,07:54:02,0.005,0.0,0.0,0.0
27/11/2023,07:55:01,0.004,0.0,0.0,0.0
27/11/2023,07:56:03,0.004,0.0,0.0,0.0
27/11/2023,07:57:02,0.005,0.0,0.0,0.0
27/11/2023,07:58:02,0.004,0.0,0.0,0.0
27/11/2023,07:59:02,0.006,0.0,0.0,0.0
27/11/2023,08:00:01,0.006,0.0,0.0,0.0
27/11/2023,08:01:01,0.006,0.0,0.0,0.0
27/11/2023,08:02:01,0.006,0.0,0.0,0.0
27/11/2023,08:03:01,0.006,0.0,0.0,0.0
27/11/2023,08:04:02,0.006,0.0,0.0,0.0
27/11/2023,08:05:02,0.006,0.0,0.0,0.0
27/11/2023,08:06:02,0.007,0.0,0.001,0.001
27/11/2023,08:07:02,0.008,0.0,0.001,0.0
27/11/2023,08:08:02,0.008,0.0,0.001,0.0
27/11/2023,08:09:05,0.008,0.0,0.001,0.0
27/11/2023,08:10:02,0.008,0.0,0.001,0.0
27/11/2023,08:11:02,0.009,0.0,0.001,0.0
27/11/2023,08:12:01,0.009,0.0,0.001,0.0
27/11/2023,08:13:02,0.009,0.0,0.001,0.0
27/11/2023,08:14:02,0.009,0.0,0.002,0.001
27/11/2023,08:15:02,0.008,0.0,0.002,0.0
27/11/2023,08:16:01,0.009,0.0,0.002,0.0
27/11/2023,08:17:01,0.009,0.0,0.002,0.0
27/11/2023,08:18:01,0.009,0.0,0.002,0.0
27/11/2023,08:19:02,0.009,0.0,0.002,0.0
27/11/2023,08:20:02,0.010,0.0,0.003,0.001
27/11/2023,08:21:01,0.009,0.0,0.003,0.0
27/11/2023,08:22:02,0.009,0.0,0.003,0.0
27/11/2023,08:23:02,0.008,0.0,0.003,0.0
27/11/2023,08:24:02,0.008,0.0,0.003,0.0
27/11/2023,08:25:01,0.008,0.0,0.003,0.0
27/11/2023,08:26:02,0.009,0.0,0.003,0.0
27/11/2023,08:27:01,0.010,0.0,0.004,0.001
27/11/2023,08:28:02,0.010,0.0,0.004,0.0
27/11/2023,08:29:02,0.010,0.0,0.004,0.0
27/11/2023,08:30:02,0.010,0.0,0.004,0.0
27/11/2023,08:31:02,0.010,0.0,0.004,0.0
27/11/2023,08:32:02,0.011,0.0,0.004,0.0
27/11/2023,08:33:01,0.012,0.0,0.005,0.001
27/11/2023,08:34:01,0.012,0.0,0.005,0.0
27/11/2023,08:35:01,0.014,0.0,0.005,0.0
27/11/2023,08:36:02,0.014,0.0,0.005,0.0
27/11/2023,08:37:02,0.014,0.0,0.005,0.0
27/11/2023,08:38:01,0.014,0.0,0.006,0.001
27/11/2023,08:39:01,0.015,0.0,0.006,0.0
27/11/2023,08:40:01,0.015,0.0,0.006,0.0
27/11/2023,08:41:02,0.016,0.0,0.006,0.0
27/11/2023,08:42:02,0.017,0.0,0.007,0.001
27/11/2023,08:43:02,0.017,0.0,0.007,0.0
27/11/2023,08:44:02,0.016,0.0,0.007,0.0
27/11/2023,08:45:02,0.019,0.0,0.008,0.001
27/11/2023,08:46:01,0.019,0.0,0.008,0.0
27/11/2023,08:47:02,0.019,0.0,0.008,0.0
27/11/2023,08:48:02,0.020,0.0,0.009,0.001
27/11/2023,08:49:01,0.020,0.0,0.009,0.0
27/11/2023,08:50:01,0.023,0.0,0.009,0.0
27/11/2023,08:51:02,0.024,0.0,0.01,0.001
27/11/2023,08:52:02,0.024,0.0,0.01,0.0
27/11/2023,08:53:02,0.025,0.0,0.01,0.0
27/11/2023,08:54:02,0.025,0.0,0.011,0.001
27/11/2023,08:55:01,0.024,0.0,0.011,0.0
27/11/2023,08:56:02,0.024,0.0,0.012,0.001
27/11/2023,08:57:01,0.023,0.0,0.012,0.0
27/11/2023,08:58:02,0.023,0.0,0.012,0.0
27/11/2023,08:59:02,0.020,0.0,0.013,0.001
27/11/2023,09:00:01,0.020,0.0,0.013,0.0
27/11/2023,09:01:02,0.020,0.0,0.013,0.0
27/11/2023,09:02:02,0.020,0.0,0.014,0.001
27/11/2023,09:03:02,0.022,0.0,0.014,0.0
27/11/2023,09:04:02,0.022,0.0,0.014,0.0
27/11/2023,09:05:02,0.023,0.0,0.015,0.001
27/11/2023,09:06:02,0.023,0.0,0.015,0.0
27/11/2023,09:07:02,0.023,0.0,0.016,0.001
27/11/2023,09:08:01,0.023,0.0,0.016,0.0
27/11/2023,09:09:02,0.025,0.0,0.016,0.0
27/11/2023,09:10:02,0.026,0.0,0.017,0.001
27/11/2023,09:11:01,0.027,0.0,0.017,0.0
27/11/2023,09:12:01,0.027,0.0,0.018,0.001
27/11/2023,09:13:02,0.030,0.0,0.018,0.0
27/11/2023,09:14:02,0.031,0.0,0.019,0.001
27/11/2023,09:15:02,0.032,0.0,0.019,0.0
27/11/2023,09:16:02,0.031,0.0,0.02,0.001
27/11/2023,09:17:02,0.033,0.0,0.02,0.0
27/11/2023,09:18:02,0.032,0.0,0.021,0.001
27/11/2023,09:19:01,0.033,0.0,0.021,0.0
27/11/2023,09:20:02,0.033,0.0,0.022,0.001
27/11/2023,09:21:01,0.033,0.0,0.022,0.0
27/11/2023,09:22:02,0.033,0.0,0.023,0.001
27/11/2023,09:23:02,0.034,0.0,0.024,0.001
27/11/2023,09:24:02,0.035,0.0,0.024,0.0
27/11/2023,09:25:02,0.036,0.0,0.025,0.001
27/11/2023,09:26:02,0.036,0.0,0.025,0.0
27/11/2023,09:27:01,0.037,0.0,0.026,0.001
27/11/2023,09:28:02,0.037,0.0,0.027,0.001
27/11/2023,09:29:02,0.037,0.0,0.027,0.0
27/11/2023,09:30:02,0.037,0.0,0.028,0.001
27/11/2023,09:31:01,0.036,0.0,0.028,0.0
27/11/2023,09:32:02,0.036,0.0,0.029,0.001
27/11/2023,09:33:02,0.038,0.0,0.03,0.001
27/11/2023,09:34:01,0.042,0.0,0.03,0.0
27/11/2023,09:35:02,0.047,0.0,0.031,0.001
27/11/2023,09:36:01,0.052,0.0,0.032,0.001
27/11/2023,09:37:02,0.055,0.0,0.033,0.001
27/11/2023,09:38:02,0.059,0.0,0.034,0.001
27/11/2023,09:39:02,0.064,0.0,0.035,0.001
27/11/2023,09:40:01,0.065,0.0,0.036,0.001
27/11/2023,09:41:02,0.067,0.0,0.037,0.001
27/11/2023,09:42:02,0.068,0.0,0.038,0.001
27/11/2023,09:43:02,0.069,0.0,0.039,0.001
27/11/2023,09:44:01,0.070,0.0,0.04,0.001
27/11/2023,09:45:01,0.071,0.0,0.042,0.002
27/11/2023,09:46:01,0.071,0.0,0.043,0.001
27/11/2023,09:47:02,0.069,0.0,0.044,0.001
27/11/2023,09:48:02,0.069,0.0,0.045,0.001
27/11/2023,09:49:02,0.066,0.0,0.046,0.001
27/11/2023,09:50:02,0.064,0.0,0.047,0.001
27/11/2023,09:51:01,0.061,0.0,0.048,0.001
27/11/2023,09:52:02,0.061,0.0,0.049,0.001
27/11/2023,09:53:01,0.062,0.0,0.05,0.001
27/11/2023,09:54:01,0.065,0.0,0.051,0.001
27/11/2023,09:55:01,0.068,0.0,0.052,0.001
27/11/2023,09:56:02,0.071,0.0,0.054,0.002
27/11/2023,09:57:02,0.072,0.0,0.055,0.001
27/11/2023,09:58:01,0.074,0.0,0.056,0.001
27/11/2023,09:59:01,0.074,0.0,0.057,0.001
27/11/2023,10:00:02,0.075,0.0,0.058,0.001
27/11/2023,10:01:02,0.074,0.0,0.06,0.002
27/11/2023,10:02:02,0.073,0.0,0.061,0.001
27/11/2023,10:03:01,0.072,0.0,0.062,0.001
27/11/2023,10:04:02,0.072,0.0,0.063,0.001
27/11/2023,10:05:02,0.072,0.0,0.065,0.002
27/11/2023,10:06:02,0.075,0.0,0.066,0.001
27/11/2023,10:07:02,0.079,0.0,0.067,0.001
27/11/2023,10:08:02,0.079,0.0,0.068,0.001
27/11/2023,10:09:02,0.081,0.0,0.07,0.002
27/11/2023,10:10:02,0.081,0.0,0.071,0.001
27/11/2023,10:11:02,0.079,0.0,0.072,0.001
27/11/2023,10:12:02,0.080,0.0,0.074,0.002
27/11/2023,10:13:01,0.080,0.0,0.075,0.001
27/11/2023,10:14:02,0.080,0.0,0.076,0.001
27/11/2023,10:15:02,0.080,0.0,0.078,0.002
27/11/2023,10:16:01,0.079,0.0,0.079,0.001